sat.trackr.live / text

‹ back to catalog

STARLINK-6209

NORAD 56877 · 2023-083B

PAYLOAD ACTIVE UNKNOWN

§ Identity

Operator
Country
US
Launch date
2023-06-12
Launch site
AFETR
Launch vehicle
Mass (kg)
RCS (m²)

Purposes: comms

External: N2YO · Heavens-Above · Gunter

§ Orbital elements

Epoch: 2026-05-24T23:46:42.942720Z

Period
94.27 min
Inclination
43.0028°
Eccentricity
0.0001087
Mean motion
15.27576548 rev/d
Perigee alt
482.3 km
Apogee alt
483.8 km
Semi-major
6,861.2 km
B*
5.3405e-6
RAAN
13.9454°
Arg perigee
237.1106°
Mean anomaly
122.9641°
Rev number
16,330

§ Raw data

STARLINK-62091 56877U 23083B   26144.99077480 -.00000115  00000+0  53405-5 0  99992 56877  43.0028  13.9454 0001087 237.1106 122.9641 15.27576548163302

JSON: /api/v1/satellites/56877 · /tle

For live sub-satellite position, see the globe view (requires WebGL).

§ Visibility from observer

Set your observer location to see the next 7 days of passes ≥ 10°. The values pass through the URL so the page stays shareable.

No JS? Fill the form by hand. The geolocation button needs JavaScript.